Weather History for LIBC - January, 2013

Change the Weather History Date:

Thursday, January 17, 2013

  Actual Average Record
Temperature  
Mean Temperature 52 °F -  
Max Temperature 59 °F 55 °F 59 °F (2013)
Min Temperature 46 °F 42 °F 35 °F (2012)
Degree Days  
Heating Degree Days 12    
Growing Degree Days 2 (Base 50)    
Moisture  
Dew Point 46 °F    
Average Humidity 78    
Maximum Humidity 88    
Minimum Humidity 58    
Precipitation  
Precipitation 0.00 in 0.09 in - ()
Sea Level Pressure  
Sea Level Pressure 29.45 in    
Wind  
Wind Speed 17 mph ()    
Max Wind Speed 26 mph    
Max Gust Speed 40 mph    
Visibility 5.6 miles    
Events Rain    
Averages and records for this station are not official NWS values.
T = Trace of Precipitation, MM = Missing Value Source: Averaged Metar Reports

Daily Weather History Graph

Daily Weather History Graph

Search for Another Location

Airport or City:

Trip Planner

Search our weather history database for the weather conditions in past years. The results will help you decide how hot, cold, wet, or windy it might be!

Date:

Astronomy

Jan. 17, 2013 Rise Set
Actual Time 7:08 AM CET 4:55 PM CET
Civil Twilight 6:39 AM CET 5:24 PM CET
Nautical Twilight 6:06 AM CET 5:57 PM CET
Astronomical Twilight 5:34 AM CET 6:29 PM CET
Moon 10:09 AM CET (1/17) 11:25 PM CET (1/17)
Length of Visible Light 10h 45m
Length of Day
9h 47m
Waxing Crescent, 35% of the Moon is Illuminated
Jan 17
Waxing Crescent
Jan 19
First Quarter
Jan 27
Full
Feb 3
Last Quarter
Feb 10
New

Hourly Weather History & Observations

Time (CET) Temp. Windchill Dew Point Humidity Pressure Visibility Wind Dir Wind Speed Gust Speed Precip Events Conditions
5:50 AM 51.8 °F - 46.4 °F 82% 29.53 in - SW 16.1 mph - N/A   Clear
6:50 AM 51.8 °F - 46.4 °F 82% 29.50 in - SSW 17.3 mph - N/A   Clear
7:50 AM 51.8 °F - 44.6 °F 76% 29.50 in - SSW 16.1 mph - N/A   Clear
8:50 AM 53.6 °F - 46.4 °F 77% 29.50 in 6.2 mi SSW 20.7 mph - N/A   Scattered Clouds
9:50 AM 55.4 °F - 46.4 °F 72% 29.50 in 6.2 mi SW 20.7 mph - N/A   Partly Cloudy
10:50 AM 57.2 °F - 46.4 °F 67% 29.47 in - SW 26.5 mph - N/A   Clear
11:50 AM 59.0 °F - 48.2 °F 67% 29.47 in - SW 19.6 mph 31.1 mph N/A   Clear
12:50 PM 57.2 °F - 50.0 °F 77% 29.44 in 6.2 mi SSW 23.0 mph - N/A   Scattered Clouds
1:50 PM 57.2 °F - 51.8 °F 82% 29.44 in 6.2 mi SSW 26.5 mph - N/A   Scattered Clouds
2:50 PM 57.2 °F - 51.8 °F 82% 29.42 in 6.2 mi SSW 21.9 mph - N/A   Scattered Clouds
3:50 PM 57.2 °F - 50.0 °F 77% 29.44 in 6.2 mi SSW 20.7 mph - N/A   Scattered Clouds
4:07 PM 53.6 °F - 50.0 °F 88% 29.44 in 5.0 mi SW 16.1 mph - N/A Rain Light Rain
4:50 PM 53.6 °F - 50.0 °F 88% 29.44 in 5.0 mi SW 13.8 mph - N/A Rain Light Rain
5:50 PM 53.6 °F - 48.2 °F 82% 29.42 in 5.0 mi SW 19.6 mph - N/A Rain Light Rain
6:50 PM 50.0 °F - 46.4 °F 87% 29.44 in 5.0 mi WSW 20.7 mph - N/A Rain Light Rain
7:50 PM 48.2 °F - 44.6 °F 87% 29.44 in 5.0 mi SW 17.3 mph - N/A Rain Light Rain
8:50 PM 50.0 °F - 41.0 °F 71% 29.42 in 5.0 mi WSW 24.2 mph 40.3 mph N/A Rain Light Rain
9:50 PM 46.4 °F 39.8 °F 41.0 °F 81% 29.44 in 5.0 mi SW 16.1 mph - N/A Rain Light Rain
10:50 PM 48.2 °F - 41.0 °F 76% 29.42 in 6.2 mi SW 15.0 mph - N/A   Scattered Clouds
11:50 PM 50.0 °F - 35.6 °F 58% 29.42 in 6.2 mi WSW 17.3 mph - N/A   Scattered Clouds